Weather History for Keene, NH

Change the Weather History Date:

Sunday, January 6, 2013

  Actual Average Record
Temperature  
Mean Temperature 27 °F -  
Max Temperature 37 °F 31 °F 68 °F (2007)
Min Temperature 17 °F 10 °F -17 °F (1996)
Degree Days  
Heating Degree Days 38    
Moisture  
Dew Point 21 °F    
Average Humidity 81    
Maximum Humidity 93    
Minimum Humidity 60    
Precipitation  
Precipitation 0.00 in - - ()
Sea Level Pressure  
Sea Level Pressure 30.02 in    
Wind  
Wind Speed 1 mph (SSW)    
Max Wind Speed 8 mph    
Max Gust Speed -    
Visibility 9 miles    
Events      
Averages and records for this station are not official NWS values.
T = Trace of Precipitation, MM = Missing Value Source: NWS Daily Summary

Daily Weather History Graph

Daily Weather History Graph

Search for Another Location

Airport:

Trip Planner

Search our weather history database for the weather conditions in past years. The results will help you decide how hot, cold, wet, or windy it might be!

Date:

Astronomy

Jan. 06, 2013 Rise Set
Actual Time 7:19 AM EST 4:30 PM EST
Civil Twilight 6:48 AM EST 5:02 PM EST
Nautical Twilight 6:12 AM EST 5:37 PM EST
Astronomical Twilight 5:38 AM EST 6:12 PM EST
Moon 1:27 AM EST (1/6) 11:58 AM EST (1/6)
Length of Visible Light 10h 14m
Length of Day
9h 10m
Waning Crescent, 33% of the Moon is Illuminated
Jan 6
Waning Crescent
Jan 11
New
Jan 18
First Quarter
Jan 26
Full
Feb 3
Last Quarter

Hourly Weather History & Observations

Time (EST) Temp. Windchill Dew Point Humidity Pressure Visibility Wind Dir Wind Speed Gust Speed Precip Events Conditions
12:35 AM 19.4 °F - 14.0 °F 80% 30.16 in 10.0 mi Calm Calm - N/A   Clear
12:55 AM 17.6 °F - 12.2 °F 79% 30.18 in 10.0 mi Calm Calm - N/A   Clear
1:15 AM 19.4 °F - 15.8 °F 86% 30.18 in 10.0 mi Calm Calm - N/A   Clear
1:35 AM 19.4 °F - 14.0 °F 80% 30.19 in 10.0 mi Calm Calm - N/A   Partly Cloudy
1:55 AM 19.4 °F - 15.8 °F 86% 30.18 in 10.0 mi Calm Calm - N/A   Scattered Clouds
2:15 AM 19.4 °F 12.8 °F 14.0 °F 80% 30.18 in 10.0 mi SSW 4.6 mph - N/A   Mostly Cloudy
2:35 AM 19.4 °F 14.3 °F 15.8 °F 86% 30.18 in 10.0 mi SSW 3.5 mph - N/A   Overcast
3:35 AM 21.2 °F - 15.8 °F 80% 30.12 in 10.0 mi Calm Calm - N/A   Clear
3:55 AM 21.2 °F - 15.8 °F 80% 30.11 in 10.0 mi Calm Calm - N/A   Scattered Clouds
4:15 AM 21.2 °F - 15.8 °F 80% 30.10 in 10.0 mi Calm Calm - N/A   Partly Cloudy
4:35 AM 21.2 °F - 15.8 °F 80% 30.09 in 10.0 mi Calm Calm - N/A   Clear
4:55 AM 21.2 °F - 15.8 °F 80% 30.08 in 7.0 mi Calm Calm - N/A   Mostly Cloudy
5:15 AM 21.2 °F - 15.8 °F 80% 30.08 in 3.0 mi Calm Calm - N/A   Overcast
5:35 AM 21.2 °F - 17.6 °F 86% 30.08 in 3.0 mi Calm Calm - N/A   Overcast
5:55 AM 21.2 °F - 17.6 °F 86% 30.07 in 3.0 mi Calm Calm - N/A   Overcast
6:55 AM 23.0 °F - 19.4 °F 86% 30.05 in 8.0 mi Calm Calm - N/A   Mostly Cloudy
7:15 AM 23.0 °F - 19.4 °F 86% 30.05 in 10.0 mi Calm Calm - N/A   Overcast
7:35 AM 23.0 °F - 19.4 °F 86% 30.04 in 10.0 mi Calm Calm - N/A   Overcast
7:55 AM 21.2 °F - 19.4 °F 93% 30.03 in 10.0 mi Calm Calm - N/A   Overcast
8:35 AM 21.2 °F - 19.4 °F 93% 30.03 in 10.0 mi Calm Calm - N/A   Partly Cloudy
8:55 AM 23.0 °F - 19.4 °F 86% 30.03 in 10.0 mi Calm Calm - N/A   Scattered Clouds
9:15 AM 23.0 °F - 19.4 °F 86% 30.03 in 10.0 mi Calm Calm - N/A   Scattered Clouds
9:35 AM 24.8 °F - 21.2 °F 86% 30.03 in 8.0 mi Calm Calm - N/A   Scattered Clouds
9:55 AM 28.4 °F 23.3 °F 24.8 °F 86% 30.02 in 10.0 mi West 4.6 mph - N/A   Partly Cloudy
10:15 AM 28.4 °F - 24.8 °F 86% 30.02 in 10.0 mi Calm Calm - N/A   Mostly Cloudy
10:35 AM 30.2 °F 26.7 °F 24.8 °F 80% 30.01 in 10.0 mi South 3.5 mph - N/A   Mostly Cloudy
10:55 AM 30.2 °F 22.6 °F 24.8 °F 80% 30.00 in 10.0 mi SSW 8.1 mph - N/A   Mostly Cloudy
11:35 AM 32.0 °F 27.5 °F 24.8 °F 75% 29.98 in 10.0 mi SW 4.6 mph - N/A   Mostly Cloudy
1:35 PM 35.6 °F 30.7 °F 24.8 °F 65% 29.94 in 10.0 mi SSW 5.8 mph - N/A   Overcast
2:35 PM 37.4 °F 32.1 °F 24.8 °F 60% 29.93 in 10.0 mi SSW 6.9 mph - N/A   Mostly Cloudy
2:55 PM 37.4 °F 32.1 °F 24.8 °F 60% 29.93 in 10.0 mi WSW 6.9 mph - N/A   Overcast
3:35 PM 37.4 °F 32.1 °F 24.8 °F 60% 29.92 in 10.0 mi SW 6.9 mph - N/A   Mostly Cloudy
3:55 PM 37.4 °F 33.8 °F 24.8 °F 60% 29.92 in 10.0 mi SSW 4.6 mph - N/A   Scattered Clouds
4:15 PM 35.6 °F 30.7 °F 26.6 °F 70% 29.93 in 10.0 mi South 5.8 mph - N/A   Mostly Cloudy
4:55 PM 35.6 °F - 26.6 °F 70% 29.93 in 10.0 mi Calm Calm - N/A   Overcast
5:35 PM 33.8 °F - 26.6 °F 75% 29.93 in 10.0 mi Calm Calm - N/A   Overcast
5:55 PM 32.0 °F - 26.6 °F 80% 29.93 in 10.0 mi Calm Calm - N/A   Overcast
6:35 PM 30.2 °F - 26.6 °F 86% 29.94 in 10.0 mi Calm Calm - N/A   Overcast
6:55 PM 30.2 °F 26.7 °F 24.8 °F 80% 29.94 in 10.0 mi West 3.5 mph - N/A   Overcast
7:15 PM 28.4 °F - 24.8 °F 86% 29.95 in 10.0 mi Calm Calm - N/A   Mostly Cloudy
7:35 PM 28.4 °F - 24.8 °F 86% 29.95 in 10.0 mi Calm Calm - N/A   Mostly Cloudy
7:55 PM 28.4 °F - 24.8 °F 86% 29.95 in 10.0 mi Calm Calm - N/A   Mostly Cloudy
8:15 PM 28.4 °F 24.6 °F 24.8 °F 86% 29.95 in 10.0 mi SSW 3.5 mph - N/A   Overcast
8:35 PM 28.4 °F 24.6 °F 24.8 °F 86% 29.95 in 10.0 mi South 3.5 mph - N/A   Overcast
8:55 PM 28.4 °F - 24.8 °F 86% 29.95 in 10.0 mi Calm Calm - N/A   Overcast
9:15 PM 28.4 °F - 24.8 °F 86% 29.95 in 10.0 mi Calm Calm - N/A   Overcast
9:55 PM 28.4 °F - 26.6 °F 93% 29.95 in 10.0 mi Calm Calm - N/A   Overcast
10:15 PM 28.4 °F 24.6 °F 24.8 °F 86% 29.95 in 9.0 mi SSW 3.5 mph - N/A   Overcast
11:15 PM 28.4 °F - 24.8 °F 86% 29.95 in 10.0 mi Calm Calm - N/A   Partly Cloudy
11:35 PM 26.6 °F - 23.0 °F 86% 29.95 in 6.0 mi Calm Calm - N/A   Partly Cloudy
11:55 PM 24.8 °F - 21.2 °F 86% 29.95 in 5.0 mi Calm Calm - N/A   Partly Cloudy